Tracking 30743 objects as of 20-Jun-2025
HD Live streaming from Space Station
objects crossing your sky now

SL-14 DEB

Track SL-14 DEB now!
10-day predictions


NORAD ID: 17271
Int'l Code: 1986-101F
Perigee: 872.9 km
Apogee: 914.6 km
Inclination: 82.4 °
Period: 102.7 minutes
Semi major axis: 7264 km
RCS: 0.0119 m2 (small)
Launch date: December 18, 1986
Source: Commonwealth of Independent States (former USSR) (CIS)
Launch site: PLESETSK MISSILE AND SPACE COMPLEX (PKMTR)

Note: This is SATELLITE DEBRIS
Your satellite tracking list
Your tracking list is empty




NASA's NSSDC Master Catalog

Two Line Element Set (TLE):
1 17271U 86101F   25170.43940316  .00000492  00000-0  31131-3 0  9996
2 17271  82.4063 162.0267 0028701  99.0114  53.0059 14.02085479961085
Source of the keplerian elements: AFSPC